Location: Reutlingen
(48.4911°N, 9.2587°E)
Time: 00:48:08
(UTC+02:00)

ISS - Visible Passes

Search period start: 22 October 2019 00:00
Search period end: 31 October 2019 23:00
Orbit: 411 x 421 km, 51.6° (Epoch: 21 October)

Date Brightness Start Highest point End Pass type
(mag) Time Alt. Az. Time Alt. Az. Time Alt. Az.
24 Oct -0.8 06:49:47 10° S 06:51:40 14° SE 06:53:33 10° ESE visible
26 Oct -2.0 06:47:51 10° SSW 06:50:51 31° SE 06:53:52 10° E visible
27 Oct -1.4 05:00:46 15° S 05:02:23 20° SE 05:04:58 10° E visible
28 Oct -0.7 04:14:37 13° ESE 04:14:37 13° ESE 04:15:40 10° ESE visible
28 Oct -3.4 05:47:32 15° SW 05:50:10 64° SSE 05:53:31 10° ENE visible
29 Oct -2.9 05:01:15 41° SSE 05:01:35 43° SSE 05:04:48 10° ENE visible
30 Oct -0.9 04:14:49 18° E 04:14:49 18° E 04:16:00 10° E visible
30 Oct -3.8 05:47:44 24° W 05:49:35 72° NNW 05:52:58 10° ENE visible
31 Oct -3.6 05:01:13 72° E 05:01:13 72° E 05:04:17 10° ENE visible
